Date String (YYYY-MM-DD hh:mm:ss) UTC,Instrument flags,Ambient pressure (hPa),Sample flow (lpm),Bypass flow (lpm),Sample temperature (°C),Ambient temperature (°C),ASC tube jacket temperature (°C),LED temperature (°C),Box temperature (°C),Sample RH (%),Span deviation,Mass concentration (μg/m³),Mass concentration (μg/m³),Mass concentration (μg/m³)
DateTimeUTC,F1_M11,P_M11,Q1_M11,Q2_M11,T1_M11,T2_M11,T3_M11,T4_M11,T5_M11,U1_M11,ZSPAN_M11,X0_M11,X2_M11,X1_M11
2022-02-13 04:00:00,,0832.7,4.99,0.00,22.0,21.3,00.0,31.1,23.7,10.4,0000.0,0016.91,0006.28,0005.45
2022-02-13 04:01:00,,0832.7,4.99,0.00,22.0,21.3,00.0,31.1,23.7,10.5,0000.0,0015.96,0006.12,0005.36
2022-02-13 04:02:00,,0832.7,5.00,0.00,22.0,21.2,00.0,31.1,23.7,10.5,0000.0,0015.63,0006.06,0005.27
2022-02-13 04:03:00,,0832.7,5.01,0.00,22.1,21.4,00.0,31.1,23.8,10.5,0000.0,0014.52,0005.99,0005.19
2022-02-13 04:04:00,,0832.7,4.99,0.00,22.2,22.1,00.0,31.2,24.0,10.5,0000.0,0014.52,0005.96,0005.13
2022-02-13 04:05:00,,0832.7,5.01,0.00,22.3,22.7,00.0,31.2,24.3,10.5,0000.0,0015.06,0005.92,0005.07
2022-02-13 04:06:00,,0832.7,5.01,0.00,22.4,22.8,00.0,31.2,24.4,10.4,0000.0,0014.61,0005.90,0005.00
2022-02-13 04:07:00,,0832.7,5.00,0.00,22.4,22.6,00.0,31.2,24.3,10.4,0000.0,0014.42,0005.90,0004.96
2022-02-13 04:08:00,,0832.7,5.00,0.00,22.4,22.4,00.0,31.3,24.3,10.4,0000.0,0014.53,0005.89,0004.94
2022-02-13 04:09:00,,0832.7,4.99,0.00,22.4,22.3,00.0,31.3,24.3,10.5,0000.0,0014.88,0005.92,0004.96
2022-02-13 04:10:00,,0832.7,5.01,0.00,22.4,22.2,00.0,31.3,24.2,10.5,0000.0,0015.25,0005.97,0004.98
2022-02-13 04:11:00,,0832.7,5.01,0.00,22.4,22.1,00.0,31.3,24.2,10.4,0000.0,0015.14,0006.09,0005.04
2022-02-13 04:12:00,,0832.7,4.99,0.00,22.4,22.0,00.0,31.3,24.2,10.4,0000.0,0014.70,0006.17,0005.09
2022-02-13 04:13:00,,0832.7,5.00,0.00,22.4,21.9,00.0,31.3,24.2,10.3,0000.0,0014.57,0006.21,0005.13
2022-02-13 04:14:00,,0832.7,5.01,0.00,22.3,21.8,00.0,31.3,24.1,10.3,0000.0,0014.38,0006.25,0005.18
2022-02-13 04:15:00,,0832.7,4.98,0.00,22.3,21.8,00.0,31.3,24.1,10.3,0000.0,0014.53,0006.29,0005.22
2022-02-13 04:16:00,,0832.7,5.01,0.00,22.3,21.7,00.0,31.3,24.1,10.3,0000.0,0014.63,0006.33,0005.28
2022-02-13 04:17:00,,0832.7,5.01,0.00,22.3,21.7,00.0,31.3,24.1,10.3,0000.0,0014.45,0006.38,0005.35
2022-02-13 04:18:00,,0832.7,4.99,0.00,22.3,21.7,00.0,31.3,24.1,10.3,0000.0,0014.54,0006.45,0005.45
2022-02-13 04:19:00,,0832.7,5.01,0.00,22.3,21.6,00.0,31.3,24.0,10.3,0000.0,0014.55,0006.51,0005.51
2022-02-13 04:20:00,,0832.7,4.99,0.00,22.3,21.6,00.0,31.3,24.0,10.3,0000.0,0014.21,0006.55,0005.56
2022-02-13 04:21:00,,0832.7,5.01,0.00,22.3,21.6,00.0,31.3,24.0,10.4,0000.0,0013.40,0006.62,0005.63
2022-02-13 04:22:00,,0832.7,5.00,0.00,22.2,21.6,00.0,31.3,24.0,10.4,0000.0,0014.04,0006.70,0005.70
2022-02-13 04:23:00,,0832.7,5.01,0.00,22.2,21.6,00.0,31.3,24.0,10.3,0000.0,0015.07,0006.74,0005.76
2022-02-13 04:24:00,,0832.7,5.00,0.00,22.2,21.6,00.0,31.3,24.0,10.4,0000.0,0015.40,0006.75,0005.79
2022-02-13 04:25:00,,0832.7,4.99,0.00,22.2,21.5,00.0,31.3,24.0,10.4,0000.0,0015.81,0006.78,0005.83
2022-02-13 04:26:00,,0832.7,5.02,0.00,22.2,21.5,00.0,31.2,24.0,10.4,0000.0,0016.14,0006.82,0005.88
2022-02-13 04:27:00,,0832.7,4.99,0.00,22.2,21.5,00.0,31.2,24.0,10.4,0000.0,0015.75,0006.81,0005.90
2022-02-13 04:28:00,,0832.7,5.01,0.00,22.2,21.5,00.0,31.2,23.9,10.4,0000.0,0016.26,0006.81,0005.91
2022-02-13 04:29:00,,0832.7,4.99,0.00,22.2,21.5,00.0,31.2,23.9,10.4,0000.0,0017.07,0006.82,0005.89
2022-02-13 04:30:00,,0832.7,5.01,0.00,22.2,21.5,00.0,31.2,23.9,10.4,0000.0,0017.27,0006.81,0005.88
2022-02-13 04:31:00,,0832.7,4.99,0.00,22.1,21.4,00.0,31.2,23.8,10.4,0000.0,0017.15,0006.72,0005.83
2022-02-13 04:32:00,,0832.7,5.00,0.00,22.1,21.4,00.0,31.2,23.8,10.3,0000.0,0017.01,0006.61,0005.73
2022-02-13 04:33:00,,0832.7,4.99,0.00,22.1,21.4,00.0,31.2,23.8,10.3,0000.0,0016.43,0006.44,0005.60
2022-02-13 04:34:00,,0832.7,5.00,0.00,22.1,21.4,00.0,31.2,23.8,10.3,0000.0,0015.17,0006.31,0005.49
2022-02-13 04:35:00,,0832.7,4.99,0.00,22.1,21.3,00.0,31.2,23.8,10.3,0000.0,0014.38,0006.21,0005.41
2022-02-13 04:36:00,,0832.8,5.02,0.00,22.1,21.4,00.0,31.2,23.8,10.3,0000.0,0013.75,0006.06,0005.30
2022-02-13 04:37:00,,0832.7,4.99,0.00,22.2,22.0,00.0,31.2,24.0,10.3,0000.0,0013.00,0005.93,0005.19
2022-02-13 04:38:00,,0832.7,5.00,0.00,22.3,22.7,00.0,31.2,24.2,10.2,0000.0,0012.54,0005.83,0005.09
2022-02-13 04:39:00,,0832.8,4.99,0.00,22.4,23.2,00.0,31.3,24.4,10.1,0000.0,0011.74,0005.67,0004.96
2022-02-13 04:40:00,,0832.7,5.00,0.00,22.5,23.0,00.0,31.3,24.5,10.1,0000.0,0010.81,0005.50,0004.84
2022-02-13 04:41:00,,0832.8,5.00,0.00,22.5,22.8,00.0,31.3,24.4,10.1,0000.0,0010.31,0005.35,0004.72
2022-02-13 04:42:00,,0832.7,5.01,0.00,22.5,22.6,00.0,31.3,24.4,10.1,0000.0,0010.27,0005.31,0004.66
2022-02-13 04:43:00,,0832.8,5.01,0.00,22.5,22.4,00.0,31.3,24.3,10.1,0000.0,0010.03,0005.23,0004.62
2022-02-13 04:44:00,,0832.7,4.99,0.00,22.5,22.3,00.0,31.3,24.3,10.1,0000.0,0010.23,0005.23,0004.61
2022-02-13 04:45:00,,0832.8,4.99,0.00,22.4,22.1,00.0,31.4,24.2,10.0,0000.0,0010.91,0005.27,0004.60
2022-02-13 04:46:00,,0832.7,4.99,0.00,22.4,22.0,00.0,31.4,24.2,10.0,0000.0,0010.80,0005.25,0004.57
2022-02-13 04:47:00,,0832.7,5.00,0.00,22.4,21.9,00.0,31.4,24.2,10.0,0000.0,0010.75,0005.23,0004.56
2022-02-13 04:48:00,,0832.8,4.99,0.00,22.4,21.8,00.0,31.4,24.1,10.0,0000.0,0010.79,0005.24,0004.56
2022-02-13 04:49:00,,0832.8,5.01,0.00,22.3,21.8,00.0,31.4,24.1,10.0,0000.0,0011.02,0005.24,0004.55
2022-02-13 04:50:00,,0832.8,4.99,0.00,22.3,21.7,00.0,31.3,24.0,10.0,0000.0,0011.48,0005.27,0004.55
2022-02-13 04:51:00,,0832.7,5.00,0.00,22.3,21.7,00.0,31.3,24.0,10.0,0000.0,0012.25,0005.31,0004.57
2022-02-13 04:52:00,,0832.8,4.98,0.00,22.3,21.7,00.0,31.3,24.1,10.1,0000.0,0012.47,0005.32,0004.57
2022-02-13 04:53:00,,0832.8,5.01,0.00,22.3,21.7,00.0,31.3,24.0,10.1,0000.0,0012.91,0005.30,0004.57
2022-02-13 04:54:00,,0832.7,5.00,0.00,22.3,21.6,00.0,31.3,24.0,10.1,0000.0,0013.15,0005.32,0004.57
2022-02-13 04:55:00,,0832.7,4.99,0.00,22.3,21.6,00.0,31.3,24.0,10.1,0000.0,0012.91,0005.28,0004.56
2022-02-13 04:56:00,,0832.7,5.00,0.00,22.3,21.6,00.0,31.3,24.0,10.1,0000.0,0012.50,0005.26,0004.57
2022-02-13 04:57:00,,0832.8,5.01,0.00,22.3,21.6,00.0,31.3,24.1,10.0,0000.0,0013.05,0005.28,0004.60
2022-02-13 04:58:00,,0832.7,4.99,0.00,22.3,21.6,00.0,31.3,24.1,09.9,0000.0,0013.16,0005.29,0004.61
2022-02-13 04:59:00,,0832.8,5.00,0.00,22.3,21.6,00.0,31.3,24.1,09.9,0000.0,0013.47,0005.29,0004.59
